Multibeam Report for MV1213


Ship Name: Melville
Chief Scientist: Lonsdale, Peter
Scripps Institution of Oceanography
Source Organization: UNOLS R2R
Start Date: 2012-10-13
End Date: 2012-10-21


View ISO Metadata

Visit the full NCEI Bathymetry Viewer


Multibeam Bathymetry

Cruise Details

Project: Volcanic Rift zones west of Baja California
Instrument: Kongsberg EM122

Data Quality

Number of Files: 396
Number of Records: 230523
BATHYMETRY DATA Quantity Percentage
Number of Beams 99585936 100%
Number of Good Beams 83918031 84.27%
Number of Zero Beams 0 0%
Number of Flagged Beams 15667905 15.73%

Navigation Totals

Total Time: 194.2005 hours
Total Track Length: 2027.3515 km
Average Speed: 10.439 km/hr (5.6366 knots)

Cruise Bounds

Northern Extent: 32.575798
Southern Extent: 26.123278
Western Extent: -117.48317
Eastern Extent: -114.96659

Limits

Minimum Sonar Depth 2.6214 Maximum Sonar Depth 7.7672
Minimum Altitude 58.5271 Maximum Altitude 4542.2939
Minimum Depth 56.1905 Maximum Depth 4619.8882

File Information

Full Resolution Bathymetry as collected (raw): 392

Files File Size Description
0000_20121013_165424_melville.all.mb58.gz 76.25MB Kongsberg multibeam vendor format
0001_20121013_172418_melville.all.mb58.gz 76.56MB Kongsberg multibeam vendor format
0002_20121013_175421_melville.all.mb58.gz 77.69MB Kongsberg multibeam vendor format
0003_20121013_182417_melville.all.mb58.gz 77.94MB Kongsberg multibeam vendor format
0004_20121013_185421_melville.all.mb58.gz 75.86MB Kongsberg multibeam vendor format
0005_20121013_192419_melville.all.mb58.gz 76.78MB Kongsberg multibeam vendor format
0006_20121013_195421_melville.all.mb58.gz 77.50MB Kongsberg multibeam vendor format
0007_20121013_202417_melville.all.mb58.gz 82.44MB Kongsberg multibeam vendor format
0008_20121013_205422_melville.all.mb58.gz 75.55MB Kongsberg multibeam vendor format
0009_20121013_212420_melville.all.mb58.gz 71.30MB Kongsberg multibeam vendor format
0010_20121013_215420_melville.all.mb58.gz 68.27MB Kongsberg multibeam vendor format
0011_20121013_222422_melville.all.mb58.gz 68.29MB Kongsberg multibeam vendor format
0012_20121013_225421_melville.all.mb58.gz 67.95MB Kongsberg multibeam vendor format
0013_20121013_232420_melville.all.mb58.gz 68.73MB Kongsberg multibeam vendor format
0014_20121013_235420_melville.all.mb58.gz 71.79MB Kongsberg multibeam vendor format
0015_20121014_002419_melville.all.mb58.gz 72.97MB Kongsberg multibeam vendor format
0016_20121014_005419_melville.all.mb58.gz 77.98MB Kongsberg multibeam vendor format
0017_20121014_012437_melville.all.mb58.gz 72.64MB Kongsberg multibeam vendor format
0018_20121014_015436_melville.all.mb58.gz 76.50MB Kongsberg multibeam vendor format
0019_20121014_022439_melville.all.mb58.gz 65.23MB Kongsberg multibeam vendor format
0020_20121014_025438_melville.all.mb58.gz 56.86MB Kongsberg multibeam vendor format
0021_20121014_032437_melville.all.mb58.gz 56.93MB Kongsberg multibeam vendor format
0022_20121014_035438_melville.all.mb58.gz 65.73MB Kongsberg multibeam vendor format
0023_20121014_042439_melville.all.mb58.gz 67.70MB Kongsberg multibeam vendor format
0024_20121014_045439_melville.all.mb58.gz 69.26MB Kongsberg multibeam vendor format
0025_20121014_052439_melville.all.mb58.gz 70.50MB Kongsberg multibeam vendor format
0026_20121014_055433_melville.all.mb58.gz 73.50MB Kongsberg multibeam vendor format
0027_20121014_062439_melville.all.mb58.gz 73.57MB Kongsberg multibeam vendor format
0028_20121014_065433_melville.all.mb58.gz 74.69MB Kongsberg multibeam vendor format
0029_20121014_072435_melville.all.mb58.gz 79.10MB Kongsberg multibeam vendor format
0030_20121014_075434_melville.all.mb58.gz 85.75MB Kongsberg multibeam vendor format
0031_20121014_082434_melville.all.mb58.gz 90.75MB Kongsberg multibeam vendor format
0032_20121014_085434_melville.all.mb58.gz 79.06MB Kongsberg multibeam vendor format
0033_20121014_092434_melville.all.mb58.gz 77.82MB Kongsberg multibeam vendor format
0034_20121014_095434_melville.all.mb58.gz 73.64MB Kongsberg multibeam vendor format
0035_20121014_102437_melville.all.mb58.gz 79.39MB Kongsberg multibeam vendor format
0036_20121014_105438_melville.all.mb58.gz 65.17MB Kongsberg multibeam vendor format
0037_20121014_112433_melville.all.mb58.gz 66.20MB Kongsberg multibeam vendor format
0038_20121014_115440_melville.all.mb58.gz 74.27MB Kongsberg multibeam vendor format
0039_20121014_122433_melville.all.mb58.gz 83.01MB Kongsberg multibeam vendor format
0040_20121014_125435_melville.all.mb58.gz 82.29MB Kongsberg multibeam vendor format
0041_20121014_132436_melville.all.mb58.gz 97.55MB Kongsberg multibeam vendor format
0042_20121014_135432_melville.all.mb58.gz 98.61MB Kongsberg multibeam vendor format
0043_20121014_142432_melville.all.mb58.gz 98.28MB Kongsberg multibeam vendor format
0044_20121014_145432_melville.all.mb58.gz 99.16MB Kongsberg multibeam vendor format
0045_20121014_152432_melville.all.mb58.gz 99.37MB Kongsberg multibeam vendor format
0046_20121014_155432_melville.all.mb58.gz 99.46MB Kongsberg multibeam vendor format
0047_20121014_162431_melville.all.mb58.gz 100.16MB Kongsberg multibeam vendor format
0048_20121014_165432_melville.all.mb58.gz 100.12MB Kongsberg multibeam vendor format
0049_20121014_172432_melville.all.mb58.gz 100.08MB Kongsberg multibeam vendor format
0050_20121014_175431_melville.all.mb58.gz 98.95MB Kongsberg multibeam vendor format
0051_20121014_182431_melville.all.mb58.gz 98.61MB Kongsberg multibeam vendor format
0052_20121014_185431_melville.all.mb58.gz 100.81MB Kongsberg multibeam vendor format
0053_20121014_192431_melville.all.mb58.gz 99.73MB Kongsberg multibeam vendor format
0054_20121014_195431_melville.all.mb58.gz 99.30MB Kongsberg multibeam vendor format
0055_20121014_202430_melville.all.mb58.gz 99.20MB Kongsberg multibeam vendor format
0056_20121014_205430_melville.all.mb58.gz 100.08MB Kongsberg multibeam vendor format
0057_20121014_212431_melville.all.mb58.gz 100.13MB Kongsberg multibeam vendor format
0058_20121014_215430_melville.all.mb58.gz 100.22MB Kongsberg multibeam vendor format
0059_20121014_222430_melville.all.mb58.gz 100.11MB Kongsberg multibeam vendor format
0060_20121014_225430_melville.all.mb58.gz 100.10MB Kongsberg multibeam vendor format
0061_20121014_232430_melville.all.mb58.gz 100.07MB Kongsberg multibeam vendor format
0062_20121014_235430_melville.all.mb58.gz 100.36MB Kongsberg multibeam vendor format
0063_20121015_002429_melville.all.mb58.gz 101.50MB Kongsberg multibeam vendor format
0064_20121015_005428_melville.all.mb58.gz 101.79MB Kongsberg multibeam vendor format
0065_20121015_012429_melville.all.mb58.gz 101.78MB Kongsberg multibeam vendor format
0066_20121015_015428_melville.all.mb58.gz 99.94MB Kongsberg multibeam vendor format
0067_20121015_022428_melville.all.mb58.gz 103.22MB Kongsberg multibeam vendor format
0068_20121015_025429_melville.all.mb58.gz 94.88MB Kongsberg multibeam vendor format
0069_20121015_032428_melville.all.mb58.gz 98.83MB Kongsberg multibeam vendor format
0070_20121015_035429_melville.all.mb58.gz 104.17MB Kongsberg multibeam vendor format
0071_20121015_042428_melville.all.mb58.gz 95.16MB Kongsberg multibeam vendor format
0072_20121015_045429_melville.all.mb58.gz 81.12MB Kongsberg multibeam vendor format
0073_20121015_052431_melville.all.mb58.gz 80.21MB Kongsberg multibeam vendor format
0074_20121015_055431_melville.all.mb58.gz 78.38MB Kongsberg multibeam vendor format
0075_20121015_062429_melville.all.mb58.gz 80.42MB Kongsberg multibeam vendor format
0076_20121015_065431_melville.all.mb58.gz 36.32MB Kongsberg multibeam vendor format
0077_20121015_071052_melville.all.mb58.gz 74.56MB Kongsberg multibeam vendor format
0078_20121015_074052_melville.all.mb58.gz 80.68MB Kongsberg multibeam vendor format
0079_20121015_081051_melville.all.mb58.gz 82.68MB Kongsberg multibeam vendor format
0080_20121015_084051_melville.all.mb58.gz 92.61MB Kongsberg multibeam vendor format
0081_20121015_091052_melville.all.mb58.gz 97.94MB Kongsberg multibeam vendor format
0082_20121015_094052_melville.all.mb58.gz 104.41MB Kongsberg multibeam vendor format
0083_20121015_101052_melville.all.mb58.gz 104.19MB Kongsberg multibeam vendor format
0084_20121015_104051_melville.all.mb58.gz 101.53MB Kongsberg multibeam vendor format
0085_20121015_111052_melville.all.mb58.gz 75.33MB Kongsberg multibeam vendor format
0086_20121015_114055_melville.all.mb58.gz 74.56MB Kongsberg multibeam vendor format
0087_20121015_121056_melville.all.mb58.gz 69.76MB Kongsberg multibeam vendor format
0088_20121015_124054_melville.all.mb58.gz 65.54MB Kongsberg multibeam vendor format
0089_20121015_131057_melville.all.mb58.gz 66.18MB Kongsberg multibeam vendor format
0090_20121015_134053_melville.all.mb58.gz 70.70MB Kongsberg multibeam vendor format
0091_20121015_141054_melville.all.mb58.gz 71.88MB Kongsberg multibeam vendor format
0092_20121015_144052_melville.all.mb58.gz 74.03MB Kongsberg multibeam vendor format
0093_20121015_151057_melville.all.mb58.gz 73.78MB Kongsberg multibeam vendor format
0094_20121015_154052_melville.all.mb58.gz 79.20MB Kongsberg multibeam vendor format
0095_20121015_161050_melville.all.mb58.gz 77.75MB Kongsberg multibeam vendor format
0096_20121015_164052_melville.all.mb58.gz 69.11MB Kongsberg multibeam vendor format
0097_20121015_171055_melville.all.mb58.gz 80.07MB Kongsberg multibeam vendor format
0098_20121015_174054_melville.all.mb58.gz 78.01MB Kongsberg multibeam vendor format
0099_20121015_181053_melville.all.mb58.gz 76.39MB Kongsberg multibeam vendor format
0100_20121015_184055_melville.all.mb58.gz 76.54MB Kongsberg multibeam vendor format
0101_20121015_191050_melville.all.mb58.gz 83.61MB Kongsberg multibeam vendor format
0102_20121015_194051_melville.all.mb58.gz 73.10MB Kongsberg multibeam vendor format
0103_20121015_201053_melville.all.mb58.gz 70.70MB Kongsberg multibeam vendor format
0104_20121015_204051_melville.all.mb58.gz 69.51MB Kongsberg multibeam vendor format
0105_20121015_211050_melville.all.mb58.gz 67.85MB Kongsberg multibeam vendor format
0106_20121015_214050_melville.all.mb58.gz 70.74MB Kongsberg multibeam vendor format
0107_20121015_221052_melville.all.mb58.gz 73.84MB Kongsberg multibeam vendor format
0108_20121015_224049_melville.all.mb58.gz 72.84MB Kongsberg multibeam vendor format
0109_20121015_231051_melville.all.mb58.gz 71.64MB Kongsberg multibeam vendor format
0110_20121015_234052_melville.all.mb58.gz 73.41MB Kongsberg multibeam vendor format
0111_20121016_001050_melville.all.mb58.gz 76.68MB Kongsberg multibeam vendor format
0112_20121016_004054_melville.all.mb58.gz 78.59MB Kongsberg multibeam vendor format
0113_20121016_011050_melville.all.mb58.gz 80.59MB Kongsberg multibeam vendor format
0114_20121016_014051_melville.all.mb58.gz 75.97MB Kongsberg multibeam vendor format
0115_20121016_021053_melville.all.mb58.gz 72.99MB Kongsberg multibeam vendor format
0116_20121016_024055_melville.all.mb58.gz 75.68MB Kongsberg multibeam vendor format
0117_20121016_031055_melville.all.mb58.gz 78.77MB Kongsberg multibeam vendor format
0118_20121016_034056_melville.all.mb58.gz 79.26MB Kongsberg multibeam vendor format
0119_20121016_041055_melville.all.mb58.gz 79.85MB Kongsberg multibeam vendor format
0120_20121016_044057_melville.all.mb58.gz 78.30MB Kongsberg multibeam vendor format
0121_20121016_051059_melville.all.mb58.gz 75.89MB Kongsberg multibeam vendor format
0122_20121016_054056_melville.all.mb58.gz 75.86MB Kongsberg multibeam vendor format
0123_20121016_061059_melville.all.mb58.gz 63.24MB Kongsberg multibeam vendor format
0124_20121016_064104_melville.all.mb58.gz 61.55MB Kongsberg multibeam vendor format
0125_20121016_071105_melville.all.mb58.gz 61.16MB Kongsberg multibeam vendor format
0126_20121016_074110_melville.all.mb58.gz 64.25MB Kongsberg multibeam vendor format
0127_20121016_081055_melville.all.mb58.gz 70.74MB Kongsberg multibeam vendor format
0128_20121016_084058_melville.all.mb58.gz 65.04MB Kongsberg multibeam vendor format
0129_20121016_091055_melville.all.mb58.gz 66.30MB Kongsberg multibeam vendor format
0130_20121016_094056_melville.all.mb58.gz 65.72MB Kongsberg multibeam vendor format
0131_20121016_101056_melville.all.mb58.gz 65.57MB Kongsberg multibeam vendor format
0132_20121016_104058_melville.all.mb58.gz 70.72MB Kongsberg multibeam vendor format
0133_20121016_111057_melville.all.mb58.gz 63.49MB Kongsberg multibeam vendor format
0134_20121016_114058_melville.all.mb58.gz 60.75MB Kongsberg multibeam vendor format
0135_20121016_121053_melville.all.mb58.gz 59.08MB Kongsberg multibeam vendor format
0136_20121016_124104_melville.all.mb58.gz 58.24MB Kongsberg multibeam vendor format
0137_20121016_131057_melville.all.mb58.gz 58.60MB Kongsberg multibeam vendor format
0138_20121016_134107_melville.all.mb58.gz 56.71MB Kongsberg multibeam vendor format
0139_20121016_141104_melville.all.mb58.gz 61.47MB Kongsberg multibeam vendor format
0140_20121016_144057_melville.all.mb58.gz 62.72MB Kongsberg multibeam vendor format
0141_20121016_151100_melville.all.mb58.gz 61.44MB Kongsberg multibeam vendor format
0142_20121016_154053_melville.all.mb58.gz 61.65MB Kongsberg multibeam vendor format
0143_20121016_161104_melville.all.mb58.gz 62.02MB Kongsberg multibeam vendor format
0144_20121016_164058_melville.all.mb58.gz 66.33MB Kongsberg multibeam vendor format
0145_20121016_171053_melville.all.mb58.gz 62.44MB Kongsberg multibeam vendor format
0146_20121016_174059_melville.all.mb58.gz 68.43MB Kongsberg multibeam vendor format
0147_20121016_181057_melville.all.mb58.gz 62.54MB Kongsberg multibeam vendor format
0148_20121016_184105_melville.all.mb58.gz 62.59MB Kongsberg multibeam vendor format
0149_20121016_191102_melville.all.mb58.gz 62.67MB Kongsberg multibeam vendor format
0150_20121016_194108_melville.all.mb58.gz 59.36MB Kongsberg multibeam vendor format
0151_20121016_201059_melville.all.mb58.gz 61.95MB Kongsberg multibeam vendor format
0152_20121016_204106_melville.all.mb58.gz 60.47MB Kongsberg multibeam vendor format
0153_20121016_211100_melville.all.mb58.gz 60.52MB Kongsberg multibeam vendor format
0154_20121016_214101_melville.all.mb58.gz 60.54MB Kongsberg multibeam vendor format
0155_20121016_221115_melville.all.mb58.gz 61.96MB Kongsberg multibeam vendor format
0156_20121016_224100_melville.all.mb58.gz 63.35MB Kongsberg multibeam vendor format
0157_20121016_231101_melville.all.mb58.gz 62.86MB Kongsberg multibeam vendor format
0158_20121016_234054_melville.all.mb58.gz 63.25MB Kongsberg multibeam vendor format
0159_20121017_001102_melville.all.mb58.gz 62.16MB Kongsberg multibeam vendor format
0160_20121017_004059_melville.all.mb58.gz 61.86MB Kongsberg multibeam vendor format
0161_20121017_011055_melville.all.mb58.gz 62.04MB Kongsberg multibeam vendor format
0162_20121017_014057_melville.all.mb58.gz 62.50MB Kongsberg multibeam vendor format
0163_20121017_021100_melville.all.mb58.gz 65.22MB Kongsberg multibeam vendor format
0164_20121017_024101_melville.all.mb58.gz 70.80MB Kongsberg multibeam vendor format
0165_20121017_031053_melville.all.mb58.gz 71.37MB Kongsberg multibeam vendor format
0166_20121017_034059_melville.all.mb58.gz 66.39MB Kongsberg multibeam vendor format
0167_20121017_041056_melville.all.mb58.gz 63.02MB Kongsberg multibeam vendor format
0168_20121017_044057_melville.all.mb58.gz 55.88MB Kongsberg multibeam vendor format
0169_20121017_051109_melville.all.mb58.gz 57.23MB Kongsberg multibeam vendor format
0170_20121017_054115_melville.all.mb58.gz 56.91MB Kongsberg multibeam vendor format
0171_20121017_061101_melville.all.mb58.gz 57.07MB Kongsberg multibeam vendor format
0172_20121017_064103_melville.all.mb58.gz 57.79MB Kongsberg multibeam vendor format
0173_20121017_071128_melville.all.mb58.gz 56.39MB Kongsberg multibeam vendor format
0174_20121017_074112_melville.all.mb58.gz 57.76MB Kongsberg multibeam vendor format
0175_20121017_081116_melville.all.mb58.gz 57.55MB Kongsberg multibeam vendor format
0176_20121017_084106_melville.all.mb58.gz 57.66MB Kongsberg multibeam vendor format
0177_20121017_091117_melville.all.mb58.gz 56.50MB Kongsberg multibeam vendor format
0178_20121017_094100_melville.all.mb58.gz 57.08MB Kongsberg multibeam vendor format
0179_20121017_101116_melville.all.mb58.gz 55.78MB Kongsberg multibeam vendor format
0180_20121017_104107_melville.all.mb58.gz 56.83MB Kongsberg multibeam vendor format
0181_20121017_111104_melville.all.mb58.gz 56.57MB Kongsberg multibeam vendor format
0182_20121017_114111_melville.all.mb58.gz 55.74MB Kongsberg multibeam vendor format
0183_20121017_121100_melville.all.mb58.gz 55.92MB Kongsberg multibeam vendor format
0184_20121017_124126_melville.all.mb58.gz 54.12MB Kongsberg multibeam vendor format
0185_20121017_131059_melville.all.mb58.gz 52.49MB Kongsberg multibeam vendor format
0186_20121017_134112_melville.all.mb58.gz 52.46MB Kongsberg multibeam vendor format
0187_20121017_141114_melville.all.mb58.gz 53.15MB Kongsberg multibeam vendor format
0188_20121017_144110_melville.all.mb58.gz 53.22MB Kongsberg multibeam vendor format
0189_20121017_151111_melville.all.mb58.gz 52.54MB Kongsberg multibeam vendor format
0190_20121017_154056_melville.all.mb58.gz 53.06MB Kongsberg multibeam vendor format
0191_20121017_161102_melville.all.mb58.gz 53.57MB Kongsberg multibeam vendor format
0192_20121017_164113_melville.all.mb58.gz 53.45MB Kongsberg multibeam vendor format
0193_20121017_171114_melville.all.mb58.gz 52.61MB Kongsberg multibeam vendor format
0194_20121017_174103_melville.all.mb58.gz 53.89MB Kongsberg multibeam vendor format
0195_20121017_181108_melville.all.mb58.gz 53.52MB Kongsberg multibeam vendor format
0196_20121017_184105_melville.all.mb58.gz 54.04MB Kongsberg multibeam vendor format
0197_20121017_191109_melville.all.mb58.gz 53.89MB Kongsberg multibeam vendor format
0198_20121017_194112_melville.all.mb58.gz 53.04MB Kongsberg multibeam vendor format
0199_20121017_201059_melville.all.mb58.gz 53.06MB Kongsberg multibeam vendor format
0200_20121017_204051_melville.all.mb58.gz 53.68MB Kongsberg multibeam vendor format
0201_20121017_211105_melville.all.mb58.gz 53.39MB Kongsberg multibeam vendor format
0202_20121017_214105_melville.all.mb58.gz 53.77MB Kongsberg multibeam vendor format
0203_20121017_221111_melville.all.mb58.gz 58.60MB Kongsberg multibeam vendor format
0204_20121017_224056_melville.all.mb58.gz 76.49MB Kongsberg multibeam vendor format
0205_20121017_231053_melville.all.mb58.gz 79.93MB Kongsberg multibeam vendor format
0206_20121017_234051_melville.all.mb58.gz 79.15MB Kongsberg multibeam vendor format
0207_20121018_001051_melville.all.mb58.gz 79.59MB Kongsberg multibeam vendor format
0208_20121018_004054_melville.all.mb58.gz 80.70MB Kongsberg multibeam vendor format
0209_20121018_011052_melville.all.mb58.gz 82.79MB Kongsberg multibeam vendor format
0210_20121018_014055_melville.all.mb58.gz 81.42MB Kongsberg multibeam vendor format
0211_20121018_021058_melville.all.mb58.gz 79.52MB Kongsberg multibeam vendor format
0212_20121018_024054_melville.all.mb58.gz 78.39MB Kongsberg multibeam vendor format
0213_20121018_031056_melville.all.mb58.gz 72.59MB Kongsberg multibeam vendor format
0214_20121018_034058_melville.all.mb58.gz 72.50MB Kongsberg multibeam vendor format
0215_20121018_041055_melville.all.mb58.gz 74.18MB Kongsberg multibeam vendor format
0216_20121018_044054_melville.all.mb58.gz 74.42MB Kongsberg multibeam vendor format
0217_20121018_051055_melville.all.mb58.gz 78.00MB Kongsberg multibeam vendor format
0218_20121018_054058_melville.all.mb58.gz 78.21MB Kongsberg multibeam vendor format
0219_20121018_061100_melville.all.mb58.gz 73.16MB Kongsberg multibeam vendor format
0220_20121018_064053_melville.all.mb58.gz 72.69MB Kongsberg multibeam vendor format
0221_20121018_071053_melville.all.mb58.gz 70.76MB Kongsberg multibeam vendor format
0222_20121018_074054_melville.all.mb58.gz 73.43MB Kongsberg multibeam vendor format
0223_20121018_081052_melville.all.mb58.gz 75.27MB Kongsberg multibeam vendor format
0224_20121018_084055_melville.all.mb58.gz 77.16MB Kongsberg multibeam vendor format
0225_20121018_091057_melville.all.mb58.gz 78.81MB Kongsberg multibeam vendor format
0226_20121018_094052_melville.all.mb58.gz 78.23MB Kongsberg multibeam vendor format
0227_20121018_101053_melville.all.mb58.gz 73.25MB Kongsberg multibeam vendor format
0228_20121018_104052_melville.all.mb58.gz 78.24MB Kongsberg multibeam vendor format
0229_20121018_111054_melville.all.mb58.gz 83.99MB Kongsberg multibeam vendor format
0230_20121018_114056_melville.all.mb58.gz 83.29MB Kongsberg multibeam vendor format
0231_20121018_121059_melville.all.mb58.gz 71.91MB Kongsberg multibeam vendor format
0232_20121018_124059_melville.all.mb58.gz 71.76MB Kongsberg multibeam vendor format
0233_20121018_131052_melville.all.mb58.gz 72.53MB Kongsberg multibeam vendor format
0234_20121018_134051_melville.all.mb58.gz 71.49MB Kongsberg multibeam vendor format
0235_20121018_141055_melville.all.mb58.gz 70.16MB Kongsberg multibeam vendor format
0236_20121018_144051_melville.all.mb58.gz 77.58MB Kongsberg multibeam vendor format
0237_20121018_151053_melville.all.mb58.gz 76.82MB Kongsberg multibeam vendor format
0238_20121018_154057_melville.all.mb58.gz 80.89MB Kongsberg multibeam vendor format
0239_20121018_161053_melville.all.mb58.gz 81.22MB Kongsberg multibeam vendor format
0240_20121018_164052_melville.all.mb58.gz 81.05MB Kongsberg multibeam vendor format
0241_20121018_171053_melville.all.mb58.gz 81.20MB Kongsberg multibeam vendor format
0242_20121018_174054_melville.all.mb58.gz 80.98MB Kongsberg multibeam vendor format
0243_20121018_181052_melville.all.mb58.gz 77.29MB Kongsberg multibeam vendor format
0244_20121018_184052_melville.all.mb58.gz 70.72MB Kongsberg multibeam vendor format
0245_20121018_191053_melville.all.mb58.gz 63.23MB Kongsberg multibeam vendor format
0246_20121018_194102_melville.all.mb58.gz 61.64MB Kongsberg multibeam vendor format
0247_20121018_201051_melville.all.mb58.gz 75.22MB Kongsberg multibeam vendor format
0248_20121018_204101_melville.all.mb58.gz 76.38MB Kongsberg multibeam vendor format
0249_20121018_211051_melville.all.mb58.gz 68.45MB Kongsberg multibeam vendor format
0250_20121018_214052_melville.all.mb58.gz 77.37MB Kongsberg multibeam vendor format
0251_20121018_221058_melville.all.mb58.gz 70.56MB Kongsberg multibeam vendor format
0252_20121018_224053_melville.all.mb58.gz 75.60MB Kongsberg multibeam vendor format
0253_20121018_231049_melville.all.mb58.gz 79.30MB Kongsberg multibeam vendor format
0254_20121018_234050_melville.all.mb58.gz 78.86MB Kongsberg multibeam vendor format
0255_20121019_001049_melville.all.mb58.gz 78.64MB Kongsberg multibeam vendor format
0256_20121019_004054_melville.all.mb58.gz 78.47MB Kongsberg multibeam vendor format
0257_20121019_011048_melville.all.mb58.gz 79.60MB Kongsberg multibeam vendor format
0258_20121019_014054_melville.all.mb58.gz 75.93MB Kongsberg multibeam vendor format
0259_20121019_021052_melville.all.mb58.gz 75.18MB Kongsberg multibeam vendor format
0260_20121019_024049_melville.all.mb58.gz 73.60MB Kongsberg multibeam vendor format
0261_20121019_031053_melville.all.mb58.gz 79.61MB Kongsberg multibeam vendor format
0262_20121019_034051_melville.all.mb58.gz 80.49MB Kongsberg multibeam vendor format
0263_20121019_041052_melville.all.mb58.gz 76.61MB Kongsberg multibeam vendor format
0264_20121019_044052_melville.all.mb58.gz 75.75MB Kongsberg multibeam vendor format
0265_20121019_051053_melville.all.mb58.gz 73.69MB Kongsberg multibeam vendor format
0266_20121019_054055_melville.all.mb58.gz 71.15MB Kongsberg multibeam vendor format
0267_20121019_061056_melville.all.mb58.gz 70.87MB Kongsberg multibeam vendor format
0268_20121019_064053_melville.all.mb58.gz 73.41MB Kongsberg multibeam vendor format
0269_20121019_071054_melville.all.mb58.gz 72.89MB Kongsberg multibeam vendor format
0270_20121019_074052_melville.all.mb58.gz 76.93MB Kongsberg multibeam vendor format
0271_20121019_081051_melville.all.mb58.gz 77.25MB Kongsberg multibeam vendor format
0272_20121019_084056_melville.all.mb58.gz 77.62MB Kongsberg multibeam vendor format
0273_20121019_091056_melville.all.mb58.gz 77.75MB Kongsberg multibeam vendor format
0274_20121019_094057_melville.all.mb58.gz 74.71MB Kongsberg multibeam vendor format
0275_20121019_101052_melville.all.mb58.gz 76.87MB Kongsberg multibeam vendor format
0276_20121019_104054_melville.all.mb58.gz 82.48MB Kongsberg multibeam vendor format
0277_20121019_111052_melville.all.mb58.gz 84.02MB Kongsberg multibeam vendor format
0278_20121019_114053_melville.all.mb58.gz 84.39MB Kongsberg multibeam vendor format
0279_20121019_121053_melville.all.mb58.gz 84.51MB Kongsberg multibeam vendor format
0280_20121019_124053_melville.all.mb58.gz 84.54MB Kongsberg multibeam vendor format
0281_20121019_131057_melville.all.mb58.gz 78.12MB Kongsberg multibeam vendor format
0282_20121019_134056_melville.all.mb58.gz 65.98MB Kongsberg multibeam vendor format
0283_20121019_141101_melville.all.mb58.gz 78.67MB Kongsberg multibeam vendor format
0284_20121019_144057_melville.all.mb58.gz 74.56MB Kongsberg multibeam vendor format
0285_20121019_151051_melville.all.mb58.gz 87.17MB Kongsberg multibeam vendor format
0286_20121019_154051_melville.all.mb58.gz 84.42MB Kongsberg multibeam vendor format
0287_20121019_161055_melville.all.mb58.gz 86.30MB Kongsberg multibeam vendor format
0288_20121019_164054_melville.all.mb58.gz 87.94MB Kongsberg multibeam vendor format
0289_20121019_171055_melville.all.mb58.gz 87.03MB Kongsberg multibeam vendor format
0290_20121019_174054_melville.all.mb58.gz 86.91MB Kongsberg multibeam vendor format
0291_20121019_181053_melville.all.mb58.gz 87.23MB Kongsberg multibeam vendor format
0292_20121019_184054_melville.all.mb58.gz 87.02MB Kongsberg multibeam vendor format
0293_20121019_191053_melville.all.mb58.gz 86.76MB Kongsberg multibeam vendor format
0294_20121019_194055_melville.all.mb58.gz 64.21MB Kongsberg multibeam vendor format
0295_20121019_201108_melville.all.mb58.gz 53.57MB Kongsberg multibeam vendor format
0296_20121019_204053_melville.all.mb58.gz 54.18MB Kongsberg multibeam vendor format
0297_20121019_211054_melville.all.mb58.gz 53.17MB Kongsberg multibeam vendor format
0298_20121019_214057_melville.all.mb58.gz 53.27MB Kongsberg multibeam vendor format
0299_20121019_221057_melville.all.mb58.gz 53.35MB Kongsberg multibeam vendor format
0300_20121019_224102_melville.all.mb58.gz 53.10MB Kongsberg multibeam vendor format
0301_20121019_231058_melville.all.mb58.gz 53.79MB Kongsberg multibeam vendor format
0302_20121019_234106_melville.all.mb58.gz 53.57MB Kongsberg multibeam vendor format
0303_20121020_001054_melville.all.mb58.gz 53.67MB Kongsberg multibeam vendor format
0304_20121020_004049_melville.all.mb58.gz 53.77MB Kongsberg multibeam vendor format
0305_20121020_011056_melville.all.mb58.gz 53.51MB Kongsberg multibeam vendor format
0306_20121020_014052_melville.all.mb58.gz 53.29MB Kongsberg multibeam vendor format
0307_20121020_021058_melville.all.mb58.gz 52.54MB Kongsberg multibeam vendor format
0308_20121020_024052_melville.all.mb58.gz 52.13MB Kongsberg multibeam vendor format
0309_20121020_031100_melville.all.mb58.gz 52.63MB Kongsberg multibeam vendor format
0310_20121020_034053_melville.all.mb58.gz 51.89MB Kongsberg multibeam vendor format
0311_20121020_041047_melville.all.mb58.gz 53.10MB Kongsberg multibeam vendor format
0312_20121020_044105_melville.all.mb58.gz 52.51MB Kongsberg multibeam vendor format
0313_20121020_051102_melville.all.mb58.gz 52.89MB Kongsberg multibeam vendor format
0314_20121020_054110_melville.all.mb58.gz 52.74MB Kongsberg multibeam vendor format
0315_20121020_061115_melville.all.mb58.gz 52.01MB Kongsberg multibeam vendor format
0316_20121020_064059_melville.all.mb58.gz 52.56MB Kongsberg multibeam vendor format
0317_20121020_071102_melville.all.mb58.gz 52.19MB Kongsberg multibeam vendor format
0318_20121020_074052_melville.all.mb58.gz 52.92MB Kongsberg multibeam vendor format
0319_20121020_081106_melville.all.mb58.gz 52.39MB Kongsberg multibeam vendor format
0320_20121020_084108_melville.all.mb58.gz 52.56MB Kongsberg multibeam vendor format
0321_20121020_091117_melville.all.mb58.gz 52.20MB Kongsberg multibeam vendor format
0322_20121020_094103_melville.all.mb58.gz 53.11MB Kongsberg multibeam vendor format
0323_20121020_101111_melville.all.mb58.gz 52.78MB Kongsberg multibeam vendor format
0324_20121020_104109_melville.all.mb58.gz 53.08MB Kongsberg multibeam vendor format
0325_20121020_111058_melville.all.mb58.gz 53.16MB Kongsberg multibeam vendor format
0326_20121020_114055_melville.all.mb58.gz 53.67MB Kongsberg multibeam vendor format
0327_20121020_121050_melville.all.mb58.gz 53.38MB Kongsberg multibeam vendor format
0328_20121020_124059_melville.all.mb58.gz 52.69MB Kongsberg multibeam vendor format
0329_20121020_131049_melville.all.mb58.gz 53.52MB Kongsberg multibeam vendor format
0330_20121020_134106_melville.all.mb58.gz 53.19MB Kongsberg multibeam vendor format
0331_20121020_141059_melville.all.mb58.gz 53.47MB Kongsberg multibeam vendor format
0332_20121020_144103_melville.all.mb58.gz 53.18MB Kongsberg multibeam vendor format
0333_20121020_151102_melville.all.mb58.gz 54.54MB Kongsberg multibeam vendor format
0334_20121020_154059_melville.all.mb58.gz 63.93MB Kongsberg multibeam vendor format
0335_20121020_161045_melville.all.mb58.gz 74.84MB Kongsberg multibeam vendor format
0336_20121020_164046_melville.all.mb58.gz 80.08MB Kongsberg multibeam vendor format
0337_20121020_171049_melville.all.mb58.gz 83.61MB Kongsberg multibeam vendor format
0338_20121020_174046_melville.all.mb58.gz 83.22MB Kongsberg multibeam vendor format
0339_20121020_181049_melville.all.mb58.gz 77.58MB Kongsberg multibeam vendor format
0340_20121020_184050_melville.all.mb58.gz 76.48MB Kongsberg multibeam vendor format
0341_20121020_191044_melville.all.mb58.gz 77.25MB Kongsberg multibeam vendor format
0342_20121020_194043_melville.all.mb58.gz 76.22MB Kongsberg multibeam vendor format
0343_20121020_201049_melville.all.mb58.gz 75.36MB Kongsberg multibeam vendor format
0344_20121020_204046_melville.all.mb58.gz 73.33MB Kongsberg multibeam vendor format
0345_20121020_211050_melville.all.mb58.gz 70.09MB Kongsberg multibeam vendor format
0346_20121020_214044_melville.all.mb58.gz 71.27MB Kongsberg multibeam vendor format
0347_20121020_221043_melville.all.mb58.gz 64.12MB Kongsberg multibeam vendor format
0348_20121020_224047_melville.all.mb58.gz 54.40MB Kongsberg multibeam vendor format
0349_20121020_231059_melville.all.mb58.gz 55.25MB Kongsberg multibeam vendor format
0350_20121020_234056_melville.all.mb58.gz 56.16MB Kongsberg multibeam vendor format
0351_20121021_001046_melville.all.mb58.gz 56.09MB Kongsberg multibeam vendor format
0352_20121021_004055_melville.all.mb58.gz 57.61MB Kongsberg multibeam vendor format
0353_20121021_011153_melville.all.mb58.gz 55.03MB Kongsberg multibeam vendor format
0354_20121021_014139_melville.all.mb58.gz 56.08MB Kongsberg multibeam vendor format
0355_20121021_021144_melville.all.mb58.gz 55.11MB Kongsberg multibeam vendor format
0356_20121021_024142_melville.all.mb58.gz 55.88MB Kongsberg multibeam vendor format
0357_20121021_031148_melville.all.mb58.gz 56.32MB Kongsberg multibeam vendor format
0358_20121021_034145_melville.all.mb58.gz 63.10MB Kongsberg multibeam vendor format
0359_20121021_041149_melville.all.mb58.gz 64.11MB Kongsberg multibeam vendor format
0360_20121021_044144_melville.all.mb58.gz 66.19MB Kongsberg multibeam vendor format
0361_20121021_051138_melville.all.mb58.gz 66.41MB Kongsberg multibeam vendor format
0362_20121021_054147_melville.all.mb58.gz 66.44MB Kongsberg multibeam vendor format
0363_20121021_061141_melville.all.mb58.gz 65.10MB Kongsberg multibeam vendor format
0364_20121021_064137_melville.all.mb58.gz 64.96MB Kongsberg multibeam vendor format
0365_20121021_071149_melville.all.mb58.gz 64.48MB Kongsberg multibeam vendor format
0366_20121021_074140_melville.all.mb58.gz 66.43MB Kongsberg multibeam vendor format
0367_20121021_081144_melville.all.mb58.gz 69.98MB Kongsberg multibeam vendor format
0368_20121021_084142_melville.all.mb58.gz 72.59MB Kongsberg multibeam vendor format
0369_20121021_091144_melville.all.mb58.gz 72.46MB Kongsberg multibeam vendor format
0370_20121021_094142_melville.all.mb58.gz 73.05MB Kongsberg multibeam vendor format
0371_20121021_101138_melville.all.mb58.gz 71.07MB Kongsberg multibeam vendor format
0372_20121021_104143_melville.all.mb58.gz 72.35MB Kongsberg multibeam vendor format
0373_20121021_111141_melville.all.mb58.gz 69.97MB Kongsberg multibeam vendor format
0374_20121021_114139_melville.all.mb58.gz 71.88MB Kongsberg multibeam vendor format
0375_20121021_121150_melville.all.mb58.gz 68.10MB Kongsberg multibeam vendor format
0376_20121021_124138_melville.all.mb58.gz 72.09MB Kongsberg multibeam vendor format
0377_20121021_131144_melville.all.mb58.gz 72.98MB Kongsberg multibeam vendor format
0378_20121021_134138_melville.all.mb58.gz 74.33MB Kongsberg multibeam vendor format
0379_20121021_141143_melville.all.mb58.gz 74.06MB Kongsberg multibeam vendor format
0380_20121021_144139_melville.all.mb58.gz 75.11MB Kongsberg multibeam vendor format
0381_20121021_151138_melville.all.mb58.gz 76.41MB Kongsberg multibeam vendor format
0382_20121021_154143_melville.all.mb58.gz 72.71MB Kongsberg multibeam vendor format
0383_20121021_161144_melville.all.mb58.gz 73.31MB Kongsberg multibeam vendor format
0384_20121021_164142_melville.all.mb58.gz 73.48MB Kongsberg multibeam vendor format
0385_20121021_171141_melville.all.mb58.gz 72.98MB Kongsberg multibeam vendor format
0386_20121021_174137_melville.all.mb58.gz 73.86MB Kongsberg multibeam vendor format
0387_20121021_181138_melville.all.mb58.gz 72.78MB Kongsberg multibeam vendor format
0388_20121021_184142_melville.all.mb58.gz 72.54MB Kongsberg multibeam vendor format
0389_20121021_191144_melville.all.mb58.gz 70.44MB Kongsberg multibeam vendor format
0390_20121021_194143_melville.all.mb58.gz 126.56MB Kongsberg multibeam vendor format
0391_20121021_201137_melville.all.mb58.gz 72.63MB Kongsberg multibeam vendor format

Metadata Files: 3

Files File Size Description
MV1213_Multibeam.xml NGDC created ISO metadata
em122_bag_info.tar.gz 21.8KB Additional cruise information
xbt_bag_info.tar.gz 1.1KB Additional cruise information

Ancillary Files: 1

Files File Size Description
xbt.tar.gz 147.6KB Expendable Bathythermograph (XBT) data